Weather History for Bigfork, MN

Change the Weather History Date:

Wednesday, February 13, 2013

  Actual Average (KGPZ) Record (KGPZ)
Temperature  
Mean Temperature 20 °F -  
Max Temperature 32 °F 26 °F 50 °F (1947)
Min Temperature 8 °F 0 °F -35 °F (1916)
Degree Days  
Heating Degree Days 45    
Moisture  
Dew Point 18 °F    
Average Humidity 84    
Maximum Humidity 93    
Minimum Humidity 64    
Precipitation  
Precipitation 0.00 in - - ()
Sea Level Pressure  
Sea Level Pressure 29.62 in    
Wind  
Wind Speed 2 mph (SSW)    
Max Wind Speed 7 mph    
Max Gust Speed -    
Visibility 8 miles    
Events Fog , Snow    
Averages and records for this station are not official NWS values.
T = Trace of Precipitation, MM = Missing Value Source: NWS Daily Summary

Daily Weather History Graph

Daily Weather History Graph

Search for Another Location

Airport:

Trip Planner

Search our weather history database for the weather conditions in past years. The results will help you decide how hot, cold, wet, or windy it might be!

Date:

Astronomy

Feb. 13, 2013 Rise Set
Actual Time 7:23 AM CST 5:34 PM CST
Civil Twilight 6:51 AM CST 6:06 PM CST
Nautical Twilight 6:15 AM CST 6:43 PM CST
Astronomical Twilight 5:39 AM CST 7:18 PM CST
Moon 8:32 AM CST (2/13) 10:01 PM CST (2/13)
Length of Visible Light 11h 15m
Length of Day
10h 11m
Waxing Crescent, 14% of the Moon is Illuminated
Feb 13
Waxing Crescent
Feb 17
First Quarter
Feb 25
Full
Mar 4
Last Quarter
Mar 11
New

Hourly Weather History & Observations

Time (CST) Temp. Windchill Dew Point Humidity Pressure Visibility Wind Dir Wind Speed Gust Speed Precip Events Conditions
12:13 AM 24.8 °F 16.9 °F 19.4 °F 80% 29.66 in 10.0 mi SW 6.9 mph - N/A   Overcast
12:33 AM 24.8 °F 16.9 °F 19.4 °F 80% 29.65 in 10.0 mi SW 6.9 mph - N/A   Overcast
12:53 AM 23.0 °F 17.0 °F 19.4 °F 86% 29.65 in 10.0 mi SW 4.6 mph - N/A   Mostly Cloudy
1:13 AM 21.2 °F 13.6 °F 17.6 °F 86% 29.64 in 10.0 mi SW 5.8 mph - N/A   Mostly Cloudy
1:33 AM 19.4 °F - 15.8 °F 86% 29.64 in 10.0 mi Calm Calm - N/A   Scattered Clouds
1:53 AM 19.4 °F - 17.6 °F 93% 29.64 in 10.0 mi Calm Calm - N/A   Clear
2:13 AM 19.4 °F - 15.8 °F 86% 29.64 in 7.0 mi Calm Calm - N/A   Clear
2:33 AM 15.8 °F - 12.2 °F 86% 29.64 in 1.8 mi Calm Calm - N/A   Mist
2:53 AM 15.8 °F - 12.2 °F 86% 29.63 in 2.5 mi Calm Calm - N/A   Clear
3:13 AM 15.8 °F 10.2 °F 12.2 °F 86% 29.64 in 5.0 mi SW 3.5 mph - N/A   Clear
3:33 AM 17.6 °F - 14.0 °F 86% 29.63 in 7.0 mi Calm Calm - N/A   Clear
3:53 AM 17.6 °F - 14.0 °F 86% 29.63 in 7.0 mi Calm Calm - N/A   Clear
4:13 AM 15.8 °F - 12.2 °F 86% 29.63 in 7.0 mi Calm Calm - N/A   Clear
4:33 AM 15.8 °F - 12.2 °F 86% 29.63 in 5.0 mi Calm Calm - N/A   Clear
4:53 AM 17.6 °F 12.3 °F 14.0 °F 86% 29.62 in 5.0 mi SW 3.5 mph - N/A   Clear
5:13 AM 15.8 °F 10.2 °F 12.2 °F 86% 29.62 in 2.0 mi SW 3.5 mph - N/A   Clear
5:33 AM 17.6 °F - 14.0 °F 86% 29.62 in 3.0 mi Calm Calm - N/A   Clear
5:53 AM 15.8 °F - 12.2 °F 86% 29.62 in 1.8 mi Calm Calm - N/A   Mist
6:13 AM 15.8 °F - 12.2 °F 86% 29.62 in 1.2 mi Calm Calm - N/A   Mist
6:33 AM 12.2 °F - 10.4 °F 92% 29.61 in 0.2 mi Calm Calm - N/A Fog Light Freezing Fog
6:53 AM 12.2 °F - 8.6 °F 85% 29.61 in 0.5 mi Calm Calm - N/A Fog Light Freezing Fog
7:13 AM 8.6 °F - 6.8 °F 92% 29.61 in 0.2 mi Calm Calm - N/A Fog Light Freezing Fog
7:33 AM 8.6 °F - 6.8 °F 92% 29.61 in 0.8 mi Calm Calm - N/A   Mostly Cloudy
7:53 AM 10.4 °F - 6.8 °F 85% 29.61 in 10.0 mi Calm Calm - N/A   Clear
8:13 AM 10.4 °F - 6.8 °F 85% 29.61 in 10.0 mi Calm Calm - N/A   Clear
8:33 AM 12.2 °F - 10.4 °F 92% 29.61 in 0.2 mi Calm Calm - N/A Fog Light Freezing Fog
8:53 AM 12.2 °F - 10.4 °F 92% 29.61 in 0.2 mi Calm Calm - N/A Fog Light Freezing Fog
9:13 AM 17.6 °F - 15.8 °F 93% 29.61 in 1.8 mi Calm Calm - N/A   Overcast
9:33 AM 21.2 °F - 19.4 °F 93% 29.61 in 4.0 mi Calm Calm - N/A   Overcast
9:53 AM 21.2 °F - 19.4 °F 93% 29.61 in 5.0 mi Calm Calm - N/A   Overcast
10:13 AM 23.0 °F - 21.2 °F 93% 29.61 in 7.0 mi Calm Calm - N/A   Overcast
10:33 AM 24.8 °F - 21.2 °F 86% 29.62 in 7.0 mi Calm Calm - N/A   Overcast
11:13 AM 24.8 °F - 21.2 °F 86% 29.63 in 10.0 mi Calm Calm - N/A   Overcast
11:33 AM 24.8 °F - 21.2 °F 86% 29.62 in 10.0 mi Calm Calm - N/A   Overcast
11:53 AM 24.8 °F - 23.0 °F 93% 29.62 in 10.0 mi Calm Calm - N/A   Mostly Cloudy
12:13 PM 26.6 °F - 24.8 °F 93% 29.61 in 10.0 mi Calm Calm - N/A   Clear
12:53 PM 28.4 °F - 24.8 °F 86% 29.60 in 10.0 mi Calm Calm - N/A   Clear
1:13 PM 28.4 °F - 24.8 °F 86% 29.60 in 10.0 mi Calm Calm - N/A   Clear
1:33 PM 30.2 °F 25.4 °F 24.8 °F 80% 29.59 in 10.0 mi East 4.6 mph - N/A   Clear
1:53 PM 30.2 °F 26.7 °F 23.0 °F 75% 29.59 in 10.0 mi ENE 3.5 mph - N/A   Clear
2:13 PM 30.2 °F 26.7 °F 23.0 °F 75% 29.58 in 10.0 mi ESE 3.5 mph - N/A   Clear
2:33 PM 30.2 °F - 23.0 °F 75% 29.58 in 10.0 mi Calm Calm - N/A   Clear
2:53 PM 30.2 °F - 23.0 °F 75% 29.58 in 10.0 mi Calm Calm - N/A   Clear
3:13 PM 30.2 °F - 21.2 °F 69% 29.59 in 10.0 mi Calm Calm - N/A   Clear
3:33 PM 32.0 °F - 21.2 °F 64% 29.59 in 10.0 mi Calm Calm - N/A   Clear
3:53 PM 30.2 °F - 21.2 °F 69% 29.59 in 10.0 mi Calm Calm - N/A   Clear
4:13 PM 30.2 °F - 21.2 °F 69% 29.59 in 10.0 mi Calm Calm - N/A   Clear
4:33 PM 30.2 °F - 21.2 °F 69% 29.60 in 10.0 mi Calm Calm - N/A   Scattered Clouds
4:53 PM 30.2 °F - 21.2 °F 69% 29.60 in 10.0 mi Calm Calm - N/A   Overcast
5:13 PM 30.2 °F - 23.0 °F 75% 29.60 in 10.0 mi Calm Calm - N/A   Overcast
5:33 PM 28.4 °F - 21.2 °F 74% 29.60 in 10.0 mi Calm Calm - N/A   Overcast
5:53 PM 28.4 °F - 21.2 °F 74% 29.61 in 10.0 mi Calm Calm - N/A   Scattered Clouds
6:13 PM 26.6 °F - 21.2 °F 80% 29.61 in 10.0 mi Calm Calm - N/A   Scattered Clouds
6:33 PM 26.6 °F - 21.2 °F 80% 29.62 in 10.0 mi Calm Calm - N/A   Mostly Cloudy
6:53 PM 26.6 °F - 23.0 °F 86% 29.62 in 10.0 mi Calm Calm - N/A   Overcast
7:13 PM 24.8 °F - 21.2 °F 86% 29.62 in 10.0 mi Calm Calm - N/A   Overcast
7:33 PM 24.8 °F - 21.2 °F 86% 29.63 in 10.0 mi Calm Calm - N/A   Mostly Cloudy
7:53 PM 24.8 °F - 21.2 °F 86% 29.62 in 10.0 mi Calm Calm - N/A   Mostly Cloudy
8:13 PM 24.8 °F - 21.2 °F 86% 29.63 in 10.0 mi Calm Calm - N/A   Mostly Cloudy
8:33 PM 23.0 °F - 21.2 °F 93% 29.63 in 10.0 mi Calm Calm - N/A   Overcast
8:53 PM 23.0 °F - 19.4 °F 86% 29.63 in 10.0 mi Calm Calm - N/A   Overcast
9:13 PM 24.8 °F - 21.2 °F 86% 29.64 in 10.0 mi Calm Calm - N/A Snow Light Snow
9:33 PM 26.6 °F - 21.2 °F 80% 29.64 in 10.0 mi Calm Calm - N/A Snow Light Snow
9:53 PM 24.8 °F - 21.2 °F 86% 29.64 in 10.0 mi Calm Calm - N/A   Overcast
10:13 PM 24.8 °F - 21.2 °F 86% 29.64 in 10.0 mi Calm Calm - N/A   Overcast
10:33 PM 24.8 °F - 21.2 °F 86% 29.65 in 10.0 mi Calm Calm - N/A   Overcast
10:53 PM 24.8 °F - 21.2 °F 86% 29.65 in 10.0 mi Calm Calm - N/A   Overcast
11:13 PM 23.0 °F - 21.2 °F 93% 29.65 in 10.0 mi Calm Calm - N/A   Overcast
11:33 PM 23.0 °F - 19.4 °F 86% 29.66 in 10.0 mi Calm Calm - N/A   Overcast
11:53 PM 23.0 °F - 19.4 °F 86% 29.66 in 10.0 mi Calm Calm - N/A   Overcast